Regional Weather Roundup
Issued by NWS

Home | Current Version | Previous Version | Text Only | Print | Product List | Glossary Off
Versions: 1 2 3 4 5 6 7 8 9 10 11 12 13 14 15 16 17 18 19 20 21 22 23 24 25 26 27 28 29 30 31 32 33 34 35 36 37 38 39 40 41 42 43 44 45 46 47 48

000
ASUS45 KCYS 211610
RWRWY

WYOMING REGIONAL WEATHER ROUNDUP
NATIONAL WEATHER SERVICE CHEYENNE WY
900 AM MST SUN DEC 21 2014

NOTE:  "FAIR" INDICATES FEW OR NO CLOUDS BELOW 12,000 FEET
WITH NO SIGNIFICANT WEATHER AND/OR OBSTRUCTIONS TO VISIBILITY.

WYZ001-211700-
YELLOWSTONE NATIONAL PARK

CITY           SKY/WX    TMP DP  RH WIND       PRES   REMARKS
LK YELLOWSTONE   N/A     28  24  85 VRB6      29.64R WCI  22
W YELLOWSTONE  NOT AVBL

$$
WYZ002>013-054>058-071-098>099-211700-
NORTHERN WYOMING

CITY           SKY/WX    TMP DP  RH WIND       PRES   REMARKS
JACKSON        BLWGSNOW  34  34 100 SW12      29.68F VSB 1   WCI  25
CODY           MOCLDY    36  32  87 E5        29.49F WCI  32
GREYBULL       CLOUDY    20  17  88 SE7       29.55S WCI  11
WORLAND        CLOUDY    23  19  85 SE6       29.56R WCI  16
SHERIDAN       CLOUDY    29  23  78 SE5       29.45F WCI  24
BUFFALO        CLOUDY    41  21  44 NE5       29.46R
GILLETTE       FAIR      39  27  62 SW22G28   29.44F WCI  29
HULETT           N/A    N/A N/A N/A MISG        N/A
NEWCASTLE      FAIR      32  27  80 W6        29.52S WCI  26

$$
WYZ014>020-022>026-101>103-211700-
CENTRAL WYOMING

CITY           SKY/WX    TMP DP  RH WIND       PRES   REMARKS
BIG PINEY      LGT SNOW  32  28  85 W15       29.73F FOG     WCI  22
PINEDALE       LGT SNOW  30  30 100 SE3       29.74F
DUBOIS         NOT AVBL
LANDER         FAIR      26  17  68 CALM      29.56F
RIVERTON       FAIR      25  19  78 W9        29.59F WCI  15
CASPER         FAIR      37  28  70 SW20G32   29.57R WCI  27
DOUGLAS        PTSUNNY   42  27  55 W10       29.54R

$$
WYZ021-027>030-104>119-211700-
SOUTHERN WYOMING

CITY           SKY/WX    TMP DP  RH WIND       PRES   REMARKS
EVANSTON       LGT SNOW  32  32 100 SW25G35   29.88R FOG     WCI  19
KEMMERER       SNOW      32  32 100 SW28G35   29.82R VSB 1/2 WCI  18
FORT BRIDGER   CLOUDY    36  33  90 W30G38    29.86R WCI  22
ROCK SPRINGS   CLOUDY    33  29  85 W17       29.79F WCI  22
DIXON          SNOW      32  30  91 SW22G28   29.84F VSB 1/2 WCI  19
RAWLINS        SNOW      31  27  85 SW32G44   29.71R VSB 1/2 WCI  16
SARATOGA       CLOUDY    32  28  86 SW16G23   29.74F WCI  21
LARAMIE        CLOUDY    33  22  63 S5        29.69S WCI  29
CHEYENNE       PTSUNNY   42  19  39 SW9       29.63F
TORRINGTON     FAIR     N/A N/A N/A W16       29.56F
PINE BLUFFS    CLOUDY    30  23  74 S7        29.65S WCI  23

$$



USA.gov is the U.S. government's official web portal to all federal, state and local government web resources and services.